SQ7FJB-2 Weather Reports


time (UTC)temp
C
wind
direction
speed
KPH
gust
KPH
rain 1hr
cm
rain 24hr
cm
rain mn
cm
humidity
%
barometer
mb
20260503055129 14 61 3.2 3.2 0.00 0.00 0.00 53 1017.3
20260503054115 14 138 3.2 3.2 0.00 0.00 0.00 55 1017.3
20260503053116 13 151 3.2 3.2 0.00 0.00 0.00 55 1017.3
20260503052103 13 180 4.8 4.8 0.00 0.00 0.00 57 1017.4
20260503051103 12 186 4.8 4.8 0.00 0.00 0.00 57 1017.5
20260503045050 11 187 3.2 3.2 0.00 0.00 0.00 59 1017.7
20260503044038 10 187 1.6 1.6 0.00 0.00 0.00 63 1017.7
20260503043025 9 204 0.0 0.0 0.00 0.00 0.00 68 1017.7
20260503042025 8 192 0.0 0.0 0.00 0.00 0.00 73 1017.7
20260503041025 7 186 0.0 0.0 0.00 0.00 0.00 75 1017.6
20260503040025 6 174 0.0 0.0 0.00 0.00 0.00 79 1017.5
20260503035025 4 172 0.0 0.0 0.00 0.00 0.00 89 1017.6
20260503034012 3 198 0.0 0.0 0.00 0.00 0.00 92 1017.6
20260503033012 3 265 0.0 0.0 0.00 0.00 0.00 93 1017.6
20260503032000 3 204 0.0 0.0 0.00 0.00 0.00 92 1017.7
20260503031000 3 198 0.0 0.0 0.00 0.00 0.00 92 1017.6
20260503025948 3 198 0.0 0.0 0.00 0.00 0.00 91 1017.7
20260503024936 3 201 0.0 0.0 0.00 0.00 0.00 91 1017.6
20260503023935 3 198 0.0 0.0 0.00 0.00 0.00 90 1017.6
20260503022923 3 265 0.0 0.0 0.00 0.00 0.00 90 1017.7
20260503021910 3 277 0.0 0.0 0.00 0.00 0.00 90 1017.7
20260503020857 3 272 0.0 0.0 0.00 0.00 0.00 90 1017.7
20260503015845 4 156 0.0 0.0 0.00 0.00 0.00 87 1017.7
20260503014834 4 156 0.0 0.0 0.00 0.00 0.00 88 1017.8
20260503013834 4 150 0.0 0.0 0.00 0.00 0.00 87 1017.7
20260503012824 5 150 0.0 0.0 0.00 0.00 0.00 87 1017.8
20260503011820 5 150 0.0 0.0 0.00 0.00 0.00 86 1017.9
20260503010808 5 150 0.0 0.0 0.00 0.00 0.00 84 1017.8
20260503005755 6 150 0.0 0.0 0.00 0.00 0.00 82 1017.8
20260503004755 6 150 0.0 0.0 0.00 0.00 0.00 79 1017.8
20260503003743 7 192 0.0 0.0 0.00 0.00 0.00 77 1017.9
20260503002730 8 192 0.0 0.0 0.00 0.00 0.00 73 1017.9
20260503001717 9 192 0.0 0.0 0.00 0.00 0.00 70 1017.9
20260503000706 9 222 0.0 0.0 0.00 0.00 0.00 70 1017.9
20260502235704 10 186 0.0 0.0 0.00 0.00 0.00 69 1017.8
20260502234653 10 186 0.0 0.0 0.00 0.00 0.00 68 1018.0
20260502233640 10 228 0.0 0.0 0.00 0.00 0.00 68 1017.9
20260502232640 10 210 0.0 0.0 0.00 0.00 0.00 69 1018.0
20260502231628 10 180 0.0 0.0 0.00 0.00 0.00 68 1018.0
20260502230627 10 186 0.0 0.0 0.00 0.00 0.00 68 1018.1
20260502225615 10 198 0.0 0.0 0.00 0.00 0.00 67 1018.2
20260502224615 10 222 0.0 0.0 0.00 0.00 0.00 67 1018.2
20260502223614 10 198 0.0 0.0 0.00 0.00 0.00 67 1018.3
20260502222603 10 198 0.0 0.0 0.00 0.00 0.00 69 1018.3
20260502221603 9 186 0.0 0.0 0.00 0.00 0.00 70 1018.4
20260502220550 9 198 0.0 0.0 0.00 0.00 0.00 70 1018.5
20260502215550 10 198 0.0 0.0 0.00 0.00 0.00 70 1018.5
20260502214538 10 198 0.0 0.0 0.00 0.00 0.00 67 1018.5
20260502213525 11 181 0.0 0.0 0.00 0.00 0.00 65 1018.4
20260502212525 11 192 0.0 0.0 0.00 0.00 0.00 63 1018.5
20260502211513 12 192 0.0 0.0 0.00 0.00 0.00 61 1018.5
20260502210513 13 180 0.0 0.0 0.00 0.00 0.00 59 1018.6
20260502205500 12 192 0.0 0.0 0.00 0.00 0.00 61 1018.7
20260502204500 12 186 0.0 0.0 0.00 0.00 0.00 61 1018.8
20260502203448 12 180 0.0 0.0 0.00 0.00 0.00 61 1018.7
20260502202449 12 180 0.0 0.0 0.00 0.00 0.00 62 1018.8
20260502201447 11 216 0.0 0.0 0.00 0.00 0.00 64 1018.8
20260502200435 11 204 0.0 0.0 0.00 0.00 0.00 66 1018.8
20260502195422 10 210 0.0 0.0 0.00 0.00 0.00 70 1018.8
20260502194422 10 209 0.0 0.0 0.00 0.00 0.00 71 1018.8
20260502193410 10 222 0.0 0.0 0.00 0.00 0.00 73 1018.8
20260502192410 10 222 0.0 0.0 0.00 0.00 0.00 71 1018.9
20260502191410 11 222 0.0 0.0 0.00 0.00 0.00 71 1018.9
20260502190357 11 222 0.0 0.0 0.00 0.00 0.00 70 1018.9
20260502185345 12 222 0.0 0.0 0.00 0.00 0.00 68 1019.0
20260502184345 12 222 0.0 0.0 0.00 0.00 0.00 67 1018.9
20260502183345 13 222 0.0 0.0 0.00 0.00 0.00 62 1018.9
20260502182333 13 222 0.0 0.0 0.00 0.00 0.00 60 1018.9
20260502181333 15 222 0.0 0.0 0.00 0.00 0.00 58 1018.9
20260502180320 15 221 0.0 0.0 0.00 0.00 0.00 55 1018.9
20260502170230 21 210 0.0 0.0 0.00 0.00 0.00 34 1019.0
20260502164218 21 231 1.6 1.6 0.00 0.00 0.00 33 1019.0
20260502163205 21 120 6.4 6.4 0.00 0.00 0.00 33 1019.1
20260502162153 21 186 3.2 3.2 0.00 0.00 0.00 33 1019.2
20260502161152 22 288 0.0 0.0 0.00 0.00 0.00 34 1019.3
20260502160141 23 222 3.2 3.2 0.00 0.00 0.00 31 1019.4
20260502152102 23 294 0.0 0.0 0.00 0.00 0.00 30 1020.0
20260502151050 23 138 4.8 4.8 0.00 0.00 0.00 30 1020.1
20260502122909 22 126 3.2 3.2 0.00 0.00 0.00 31 1021.7
20260502121909 22 252 1.6 1.6 0.00 0.00 0.00 33 1021.9
20260502120909 22 348 3.2 3.2 0.00 0.00 0.00 31 1022.0
20260502115857 22 168 4.8 4.8 0.00 0.00 0.00 33 1022.1
20260502114857 22 222 3.2 3.2 0.00 0.00 0.00 32 1022.2
20260502113857 22 184 3.2 3.2 0.00 0.00 0.00 32 1022.3
20260502112856 21 330 0.0 0.0 0.00 0.00 0.00 35 1022.4
20260502111844 21 274 1.6 1.6 0.00 0.00 0.00 36 1022.6
20260502110844 21 30 0.0 0.0 0.00 0.00 0.00 35 1022.7
20260502105834 21 342 1.6 1.6 0.00 0.00 0.00 33 1022.8
20260502104832 21 330 1.6 1.6 0.00 0.00 0.00 35 1022.9
20260502103832 21 54 0.0 0.0 0.00 0.00 0.00 37 1023.0
20260502102819 21 300 0.0 0.0 0.00 0.00 0.00 35 1023.1
20260502101819 21 282 0.0 0.0 0.00 0.00 0.00 34 1023.2
20260502100819 20 171 1.6 1.6 0.00 0.00 0.00 36 1023.3
20260502090806 20 330 0.0 0.0 0.00 0.00 0.00 37 1023.8
20260502070716 17 185 6.4 6.4 0.00 0.00 0.00 49 1024.2
20260502065716 16 170 1.6 1.6 0.00 0.00 0.00 49 1024.2
20260502064715 16 207 1.6 1.6 0.00 0.00 0.00 50 1024.2
20260502063703 16 185 0.0 0.0 0.00 0.00 0.00 52 1024.2
20260502062651 15 64 0.0 0.0 0.00 0.00 0.00 54 1024.2
20260502061639 15 187 3.2 3.2 0.00 0.00 0.00 56 1024.2
20260502060626 13 181 1.6 1.6 0.00 0.00 0.00 59 1024.2
20260502055614 13 173 3.2 3.2 0.00 0.00 0.00 59 1024.1